Waarnemingen

Advertentie
Mijn weer
Charleroi/Gosselies, België (6449): temperatuur & dauwpunt: 04.04.2020 20:00:00 - 10.04.2020 20:00:00 (CEST)Charleroi/Gosselies, België (6449): windsnelheid & windstoten: 04.04.2020 20:00:00 - 10.04.2020 20:00:00 (CEST)Charleroi/Gosselies, België (6449): windrichting: 04.04.2020 20:00:00 - 10.04.2020 20:00:00 (CEST)Charleroi/Gosselies, België (6449): luchtdruk: 04.04.2020 20:00:00 - 10.04.2020 20:00:00 (CEST)Charleroi/Gosselies, België (6449): zicht: 04.04.2020 20:00:00 - 10.04.2020 20:00:00 (CEST)
Datum & Tijd tt [°C] td [°C] ff [km/u] ff [kn] fx [km/u] fx [kn] dd ppp [hPa] vv [km]
10.04.2020 20:00:00 17,7 6,1 21 11 - - NO 1023,4 10
10.04.2020 19:00:00 19,3 5,5 21 11 32 18 NO 1023,1 10
10.04.2020 18:00:00 20,0 5,8 18 10 29 16 NO 1023,2 10
10.04.2020 17:00:00 20,6 4,9 15 8 - - NO 1023,4 10
10.04.2020 16:00:00 20,1 5,9 16 9 25 14 NNO 1023,8 10
10.04.2020 15:00:00 20,0 6,5 15 8 25 14 NO 1024,3 10
10.04.2020 14:00:00 19,4 6,1 16 9 - - NO 1024,9 10
10.04.2020 13:00:00 18,1 6,5 14 8 25 14 NO 1025,5 15
10.04.2020 12:00:00 17,3 7,4 13 7 22 12 NO 1025,8 10
10.04.2020 11:00:00 15,3 7,7 11 6 - - NO 1026,0 10
10.04.2020 10:00:00 12,6 6,7 13 7 18 10 ONO 1026,1 10
10.04.2020 09:00:00 10,5 6,9 9 5 14 8 ONO 1026,2 10
10.04.2020 08:00:00 8,6 6,2 9 5 - - ONO 1026,1 10
10.04.2020 07:00:00 8,7 6,1 8 4 14 8 ONO 1025,7 10
10.04.2020 06:00:00 8,7 5,9 9 5 14 8 NO 1025,8 10
10.04.2020 05:00:00 9,0 6,1 11 6 - - NO 1025,9 10
10.04.2020 04:00:00 9,5 5,9 11 6 14 8 NNO 1026,0 10
10.04.2020 03:00:00 9,9 5,8 11 6 14 8 NO 1026,0 10
10.04.2020 02:00:00 10,8 5,4 11 6 - - NO 1026,1 10
10.04.2020 01:00:00 11,5 5,7 11 6 14 8 NO 1026,2 10
10.04.2020 00:00:00 14,0 5,5 11 6 14 8 ONO 1026,0 10
09.04.2020 23:00:00 13,6 6,1 11 6 - - NO 1026,0 10
09.04.2020 22:00:00 15,4 6,1 16 9 25 14 NO 1025,6 10
09.04.2020 21:00:00 16,7 6,4 16 9 25 14 NO 1025,0 10
09.04.2020 20:00:00 18,2 6,6 18 10 - - NO 1024,3 10
09.04.2020 19:00:00 20,0 6,8 21 11 29 16 NO 1023,7 10
09.04.2020 18:00:00 21,0 6,9 21 11 25 14 NO 1023,5 10
09.04.2020 17:00:00 21,6 7,5 13 7 - - NO 1023,7 10
09.04.2020 16:00:00 21,7 7,7 15 8 22 12 NO 1024,1 10
09.04.2020 15:00:00 21,1 7,4 13 7 22 12 NNO 1024,4 10
09.04.2020 14:00:00 20,8 8,8 13 7 - - ONO 1024,6 10
09.04.2020 13:00:00 19,9 9,5 15 8 22 12 NO 1024,9 10
09.04.2020 12:00:00 18,9 8,9 16 9 22 12 NO 1025,1 9
09.04.2020 11:00:00 16,0 8,8 11 6 - - NO 1025,3 7
09.04.2020 10:00:00 14,6 7,9 13 7 18 10 O 1025,0 7
09.04.2020 09:00:00 11,6 8,6 13 7 18 10 NO 1024,8 6
09.04.2020 08:00:00 10,1 5,5 5 3 - - NO 1024,3 10
09.04.2020 07:00:00 10,0 4,0 5 3 7 4 N 1023,6 10
09.04.2020 06:00:00 11,2 3,0 2 1 7 4 - 1023,4 10
09.04.2020 05:00:00 11,9 4,4 4 2 - - - 1023,2 10
09.04.2020 04:00:00 12,8 3,9 4 2 7 4 - 1023,2 10
09.04.2020 03:00:00 14,0 4,3 5 3 7 4 N 1023,4 10
09.04.2020 02:00:00 14,5 4,1 5 3 - - N 1023,5 10
09.04.2020 01:00:00 13,8 4,0 2 1 11 6 - 1023,6 10
09.04.2020 00:00:00 14,6 4,9 4 2 7 4 - 1023,6 10
08.04.2020 23:00:00 16,5 4,9 5 3 - - NNO 1023,3 10
08.04.2020 22:00:00 18,2 4,7 8 4 11 6 N 1023,0 10
08.04.2020 21:00:00 18,6 3,6 4 2 7 4 - 1022,7 10
08.04.2020 20:00:00 20,9 4,1 4 2 - - - 1022,3 10
08.04.2020 19:00:00 21,4 4,3 11 6 14 8 NNO 1022,1 10
08.04.2020 18:00:00 22,5 4,1 9 5 14 8 ONO 1022,0 10
08.04.2020 17:00:00 22,7 2,9 8 4 - - O 1022,3 10
08.04.2020 16:00:00 24,1 1,3 2 1 22 12 - 1022,7 10
08.04.2020 15:00:00 23,8 2,3 11 6 29 16 - 1023,0 10
08.04.2020 14:00:00 22,9 -0,3 4 2 - - - 1023,6 10
08.04.2020 13:00:00 22,8 -0,1 11 6 18 10 O 1023,9 10
08.04.2020 12:00:00 21,8 5,5 8 4 14 8 OZO 1024,6 10
08.04.2020 11:00:00 18,9 5,8 9 5 - - ZZO 1025,1 10
08.04.2020 10:00:00 16,4 6,6 13 7 22 12 ZZO 1025,3 10
08.04.2020 09:00:00 14,1 6,2 8 4 11 6 Z 1025,6 10
08.04.2020 08:00:00 12,7 6,1 8 4 - - Z 1025,6 10
08.04.2020 07:00:00 11,8 5,6 8 4 11 6 Z 1025,5 10
08.04.2020 06:00:00 12,0 6,1 8 4 11 6 Z 1025,8 10
08.04.2020 05:00:00 12,0 6,3 8 4 - - ZZO 1026,1 10
08.04.2020 04:00:00 12,1 6,9 8 4 11 6 ZO 1026,3 10
08.04.2020 03:00:00 12,5 7,4 5 3 7 4 ZO 1026,7 10
08.04.2020 02:00:00 11,9 7,7 8 4 - - O 1027,2 9
08.04.2020 01:00:00 12,6 8,1 8 4 11 6 O 1027,3 8
08.04.2020 00:00:00 13,1 8,6 9 5 14 8 ONO 1027,5 7
07.04.2020 23:00:00 14,7 8,8 9 5 - - ONO 1027,5 8
07.04.2020 22:00:00 15,0 9,2 13 7 18 10 ONO 1027,7 9
07.04.2020 21:00:00 15,7 9,3 11 6 18 10 NO 1027,4 10
07.04.2020 20:00:00 16,8 9,5 15 8 - - NO 1027,2 10
07.04.2020 19:00:00 18,9 9,2 21 11 25 14 NO 1027,1 10
07.04.2020 18:00:00 19,7 8,8 18 10 25 14 NO 1027,4 10
07.04.2020 17:00:00 19,7 8,6 16 9 - - NO 1027,8 10
07.04.2020 16:00:00 19,3 8,7 16 9 29 16 NO 1028,3 10
07.04.2020 15:00:00 18,8 9,2 13 7 25 14 ONO 1029,1 10
07.04.2020 14:00:00 17,8 8,5 13 7 - - ONO 1029,8 10
07.04.2020 13:00:00 16,5 8,0 13 7 22 12 ONO 1030,4 10
07.04.2020 12:00:00 15,2 9,0 13 7 22 12 ONO 1031,0 10
07.04.2020 11:00:00 13,9 9,5 13 7 - - ONO 1031,1 6
07.04.2020 10:00:00 12,3 9,7 9 5 14 8 ONO 1031,2 6
07.04.2020 09:00:00 10,3 9,5 8 4 7 4 ONO 1030,9 2,5
07.04.2020 08:00:00 8,5 8,5 2 1 - - - 1030,9 0,1
07.04.2020 07:00:00 8,2 8,2 2 1 4 2 - 1030,2 2,2
07.04.2020 06:00:00 8,5 8,3 2 1 4 2 N 1029,6 2,3
07.04.2020 05:00:00 8,9 8,5 2 1 - - Z 1029,3 2,5
07.04.2020 04:00:00 8,9 8,6 4 2 11 6 ZW 1029,2 3,8
07.04.2020 03:00:00 10,1 9,3 8 4 11 6 WZW 1028,8 6
07.04.2020 02:00:00 10,4 9,4 5 3 - - WZW 1028,5 10
07.04.2020 01:00:00 10,7 9,3 5 3 11 6 W 1028,0 10
07.04.2020 00:00:00 11,9 9,8 8 4 14 8 WZW 1027,2 10
06.04.2020 23:00:00 12,0 9,6 9 5 - - WZW 1027,0 10
06.04.2020 22:00:00 11,9 9,6 9 5 14 8 WZW 1026,3 10
06.04.2020 21:00:00 12,5 9,6 11 6 22 12 WZW 1025,2 10
06.04.2020 20:00:00 12,9 9,6 15 8 - - WZW 1024,3 10
06.04.2020 19:00:00 13,9 9,0 18 10 32 18 W 1023,3 10
06.04.2020 18:00:00 15,9 4,4 21 11 43 23 W 1022,2 10
06.04.2020 17:00:00 19,3 2,7 29 16 - - ZW 1020,9 10
06.04.2020 16:00:00 20,2 2,1 22 12 43 23 ZZW 1020,5 10
06.04.2020 15:00:00 20,1 2,7 26 14 36 19 ZZW 1020,3 10
06.04.2020 14:00:00 19,0 2,0 18 10 - - ZZW 1020,1 10
06.04.2020 13:00:00 18,4 1,2 16 9 32 18 Z 1019,5 10
06.04.2020 12:00:00 17,2 0,8 26 14 40 21 ZZW 1019,2 10
06.04.2020 11:00:00 15,8 0,7 26 14 - - Z 1019,0 10
06.04.2020 10:00:00 14,0 0,4 26 14 32 18 Z 1018,6 10
06.04.2020 09:00:00 12,4 0,4 18 10 32 18 Z 1018,2 10
06.04.2020 08:00:00 11,7 0,1 21 11 - - Z 1017,4 10
06.04.2020 07:00:00 11,9 -0,2 18 10 25 14 Z 1016,7 10
06.04.2020 06:00:00 12,0 0,0 11 6 18 10 Z 1016,4 10
06.04.2020 05:00:00 12,0 0,1 13 7 - - ZZO 1016,3 10
06.04.2020 04:00:00 12,4 0,1 8 4 18 10 ZZO 1016,2 10
06.04.2020 03:00:00 13,0 0,0 11 6 22 12 ZZO 1016,3 10
06.04.2020 02:00:00 14,0 0,0 11 6 - - ZZO 1016,3 10
06.04.2020 01:00:00 14,3 -0,2 13 7 22 12 ZZO 1016,2 10
06.04.2020 00:00:00 14,7 0,3 15 8 25 14 ZZO 1016,3 10
05.04.2020 23:00:00 15,0 1,7 13 7 - - ZO 1016,2 10
05.04.2020 22:00:00 15,8 1,6 13 7 18 10 ZO 1016,3 10
05.04.2020 21:00:00 17,3 2,1 9 5 22 12 ZO 1016,2 10
05.04.2020 20:00:00 19,1 1,4 13 7 - - ZZO 1015,9 10
05.04.2020 19:00:00 20,2 0,8 16 9 32 18 Z 1015,9 10
05.04.2020 18:00:00 21,2 0,5 16 9 36 19 ZZO 1016,0 10
05.04.2020 17:00:00 20,9 -1,1 18 10 - - Z 1016,4 10
05.04.2020 16:00:00 21,0 -2,5 21 11 36 19 ZZO 1016,8 10
05.04.2020 15:00:00 20,5 -0,6 18 10 36 19 ZZO 1017,6 10
05.04.2020 14:00:00 19,2 -0,1 18 10 - - ZO 1018,4 10
05.04.2020 13:00:00 18,6 0,3 21 11 36 19 ZZO 1019,0 10
05.04.2020 12:00:00 16,8 0,1 18 10 32 18 ZO 1020,0 10
05.04.2020 11:00:00 13,5 0,4 18 10 - - ZO 1020,5 10
05.04.2020 10:00:00 11,3 0,3 21 11 29 16 OZO 1020,8 10
05.04.2020 09:00:00 8,8 0,1 16 9 25 14 ZO 1021,3 10
05.04.2020 08:00:00 6,6 -0,1 15 8 - - OZO 1021,4 10
05.04.2020 07:00:00 6,2 -0,8 13 7 18 10 OZO 1021,1 10
05.04.2020 06:00:00 6,2 -1,2 11 6 14 8 OZO 1021,3 10
05.04.2020 05:00:00 6,5 -0,8 11 6 - - OZO 1021,7 10
05.04.2020 04:00:00 6,8 -1,2 8 4 11 6 OZO 1022,0 10
05.04.2020 03:00:00 7,3 -1,0 9 5 14 8 OZO 1022,1 10
05.04.2020 02:00:00 7,6 -0,2 9 5 - - OZO 1022,6 10
05.04.2020 01:00:00 8,1 0,0 8 4 11 6 OZO 1022,5 10
05.04.2020 00:00:00 8,7 0,0 5 3 11 6 O 1022,7 10
04.04.2020 23:00:00 9,3 0,5 5 3 - - O 1022,6 10
04.04.2020 22:00:00 9,8 1,2 11 6 18 10 O 1022,7 10
04.04.2020 21:00:00 11,2 0,6 5 3 14 8 ONO 1022,3 10
04.04.2020 20:00:00 13,3 0,4 9 5 - - OZO 1021,8 10

tt = temperatuur
td = dauwpunt
ff = windsnelheid
fx = windstoten
dd = windrichting
ppp = luchtdruk
vv = zicht

Weerstations in de omgeving